Location: LDNL
(36.4545°S, 141.6685°E)
Time: 06:27:34
(UTC+10:00)

Courier 1B Rocket - All Passes

Search period start: 10 August 2022 00:00
Search period end: 20 August 2022 00:00
Orbit: 920 x 1202 km, 28.2° (Epoch: 08 August)

Date Brightness Start Highest point End Pass type
(mag) Time Alt. Az. Time Alt. Az. Time Alt. Az.
10 Aug - 03:20:26 10° N 03:24:27 15° NNE 03:28:27 10° ENE visible
10 Aug - 05:10:39 10° NW 05:17:23 32° NNE 05:23:52 10° ENE visible
10 Aug - 07:03:24 10° WNW 07:10:34 45° N 07:17:19 10° ENE daylight
10 Aug - 08:57:03 10° WNW 09:03:43 37° NNW 09:09:57 10° NE daylight
10 Aug - 10:51:47 10° WNW 10:56:27 19° NNW 11:00:54 10° NNE daylight
11 Aug - 04:10:01 10° NNW 04:16:18 27° NNE 04:22:28 10° ENE visible
11 Aug - 06:02:14 10° WNW 06:09:27 43° N 06:16:19 10° ENE visible
11 Aug - 07:55:39 10° WNW 08:02:41 42° N 08:09:17 10° ENE daylight
11 Aug - 09:49:52 10° WNW 09:55:36 26° NNW 10:01:02 10° NNE daylight
12 Aug - 03:09:43 10° NNW 03:15:15 21° NNE 03:20:45 10° ENE visible
12 Aug - 05:01:10 10° NW 05:08:18 39° NNE 05:15:12 10° ENE visible
12 Aug - 06:54:18 10° WNW 07:01:35 45° N 07:08:27 10° ENE visible
12 Aug - 08:48:12 10° WNW 08:54:40 32° NNW 09:00:46 10° NE daylight
12 Aug - 10:44:03 10° WNW 10:47:18 14° NNW 10:50:26 10° N daylight
13 Aug - 02:10:05 10° N 02:14:15 15° NNE 02:18:26 10° ENE visible
13 Aug - 04:00:19 10° NW 04:07:10 33° NNE 04:13:55 10° ENE visible
13 Aug - 05:53:02 10° WNW 06:00:25 46° N 06:07:29 10° ENE visible
13 Aug - 07:46:42 10° WNW 07:53:39 39° NNW 08:00:13 10° NE daylight
13 Aug - 09:41:27 10° WNW 09:46:28 20° NNW 09:51:15 10° NNE daylight
14 Aug - 02:59:43 10° NNW 03:06:04 27° NNE 03:12:25 10° ENE visible
14 Aug - 04:51:54 10° WNW 04:59:14 44° N 05:06:24 10° ENE visible
14 Aug - 06:45:17 10° WNW 06:52:33 43° N 06:59:27 10° ENE visible
14 Aug - 08:39:30 10° WNW 08:45:34 26° NNW 08:51:19 10° NNE daylight
15 Aug - 01:59:31 10° NNW 02:05:01 21° NNE 02:10:36 10° ENE visible
15 Aug - 03:50:54 10° NW 03:58:03 39° NNE 04:05:10 10° ENE visible
15 Aug - 05:43:57 10° WNW 05:51:23 46° N 05:58:33 10° ENE visible
15 Aug - 07:37:50 10° WNW 07:44:34 33° NNW 07:50:59 10° NE daylight
15 Aug - 09:33:37 10° WNW 09:37:17 14° NNW 09:40:50 10° N daylight
16 Aug - 00:59:57 10° N 01:04:03 15° NNE 01:08:13 10° ENE night (unlit)
16 Aug - 02:50:06 10° NW 02:56:54 34° NNE 03:03:47 10° ENE visible
16 Aug - 04:42:45 10° WNW 04:50:11 46° N 04:57:29 10° ENE visible
16 Aug - 06:36:20 10° WNW 06:43:29 39° NNW 06:50:21 10° NE visible
16 Aug - 08:31:04 10° WNW 08:36:23 21° NNW 08:41:31 10° NNE daylight
17 Aug - 01:49:35 10° NNW 01:55:50 28° NNE 02:02:13 10° ENE night (unlit)
17 Aug - 03:41:40 10° WNW 03:48:58 44° N 03:56:18 10° ENE visible
17 Aug - 05:34:58 10° WNW 05:42:20 44° N 05:49:30 10° ENE visible
17 Aug - 07:29:08 10° WNW 07:35:25 27° NNW 07:41:29 10° NNE daylight
18 Aug - 00:49:29 10° NNW 00:54:49 21° NNE 01:00:19 10° ENE night (unlit)
18 Aug - 02:40:45 10° NW 02:47:48 40° NNE 02:55:00 10° ENE visible
18 Aug - 04:33:43 10° WNW 04:41:08 46° N 04:48:30 10° ENE visible
18 Aug - 06:27:30 10° WNW 06:34:23 34° NNW 06:41:03 10° NE visible
18 Aug - 08:23:11 10° WNW 08:27:11 15° NNW 08:31:05 10° N daylight
18 Aug - 23:50:02 10° N 23:53:53 15° NNE 23:57:51 10° ENE night (unlit)
19 Aug - 01:40:03 10° NW 01:46:40 34° NNE 01:53:32 10° ENE night (unlit)
19 Aug - 03:32:34 10° WNW 03:39:55 46° N 03:47:21 10° ENE visible
19 Aug - 05:26:04 10° WNW 05:33:15 40° NNW 05:40:20 10° NE visible
19 Aug - 07:20:43 10° WNW 07:26:14 21° NNW 07:31:37 10° NNE daylight
